Overview Statistics Trail Chart Weather Telemetry Raw packets
 

This is the latest recevied weather packets stored in our database for station/object KB9PVH-8. If no packets are shown the sender has not sent any weather packets the latest 10 day(s).

<< 1 2 3 4 5 >>
Time Temp. Humidity Pressure Rain* Wind** Luminosity Snow
1788638774 25.56° C - - 0 mm 9.39 m/s, ° - -
1788637934 25.56° C - - 0 mm 10.73 m/s, ° - -
1788637095 25.56° C - - 0 mm 13.86 m/s, ° - -
1788636224 26.67° C - - 0 mm 16.54 m/s, ° - -
1788635384 26.11° C - - 0 mm 11.62 m/s, ° - -
1788634544 26.11° C - - 0 mm 37.55 m/s, ° - -
1788633704 26.11° C - - 0 mm 16.99 m/s, ° - -
1788632935 25.56° C - - 0 mm 15.65 m/s, ° - -
1788632895 25.56° C - - 0 mm 15.65 m/s, ° - -
1788632864 25.56° C - - 0 mm 15.65 m/s, ° - -
1788632024 25.56° C - - 0 mm 13.41 m/s, ° - -
1788631184 25° C - - 0 mm 14.75 m/s, ° - -
1788630344 24.44° C - - 0 mm 7.15 m/s, ° - -
1788629504 24.44° C - - 0 mm 9.39 m/s, ° - -
1788628664 24.44° C - - 0 mm 10.73 m/s, ° - -
1788627824 23.89° C - - 0 mm 8.49 m/s, ° - -
1788626985 23.89° C - - 0 mm 7.6 m/s, ° - -
1788626144 23.89° C - - 0 mm 8.49 m/s, ° - -
1788625304 23.33° C - - 0 mm 6.71 m/s, ° - -
1788624497 23.33° C - - 0 mm 4.92 m/s, ° - -
1788624464 23.33° C - - 0 mm 4.92 m/s, ° - -
1788623679 23.33° C - - 0 mm 4.47 m/s, ° - -
1788623624 23.33° C - - 0 mm 4.47 m/s, ° - -
1788622787 23.33° C - - 0 mm 4.47 m/s, ° - -
1788621944 23.89° C - - 0 mm 5.81 m/s, ° - -

* Rain latest hour (hover to see other rain measurements)
** Current wind speed in m/s (hover to see current wind gust speed)